Location: Cedarville Mobile Home Park
(38.5815°N, 75.0860°W)
Time: 01:48:23
(UTC+00:00)

ACS3 Solar Sail - Pass Details

Date: 17 October 2024
Orbit: 961 x 1022 km, 97.5° (Epoch: 03 November)

Event Time Altitude Azimuth Distance (km) Brightness Sun altitude
Exits shadow 01:56:02 30° 284° (WNW) 1,765 3.5 -42.2°
Drops below altitude 10° 02:00:36 10° 327° (NNW) 2,831 4.7 -42.9°
Sets 02:03:27 0° 338° (NNW) 3,785 5.4 -43.4°
